Regional Weather Roundup
Issued by NWS

Home | Current Version | Previous Version | Text Only | Print | Product List | Glossary Off
Versions: 1 2 3 4 5 6 7 8 9 10 11 12 13 14 15 16 17 18 19 20 21 22 23 24 25 26 27 28

000
ASUS45 KCYS 160410
RWRWY

WYOMING REGIONAL WEATHER ROUNDUP
NATIONAL WEATHER SERVICE CHEYENNE WY
900 PM MST FRI DEC 15 2017

NOTE:  "FAIR" INDICATES FEW OR NO CLOUDS BELOW 12,000 FEET
WITH NO SIGNIFICANT WEATHER AND/OR OBSTRUCTIONS TO VISIBILITY.

WYZ001-160500-
YELLOWSTONE NATIONAL PARK

CITY           SKY/WX    TMP DP  RH WIND       PRES   REMARKS
LK YELLOWSTONE   N/A     18  16  92 CALM      29.95F
W YELLOWSTONE  NOT AVBL

$$
WYZ002>013-054>058-071-098>099-160500-
NORTHERN WYOMING

CITY           SKY/WX    TMP DP  RH WIND       PRES   REMARKS
JACKSON        CLOUDY    21  17  84 NE3       29.95F
CODY           NOT AVBL
GREYBULL       FAIR      31  18  58 CALM      29.75F
WORLAND        FAIR      29  22  75 CALM      29.76F
SHERIDAN       FAIR      33  24  69 N6        29.70R WCI  28
BUFFALO        FAIR      46  11  24 NW3       29.70S
GILLETTE       FAIR      41  20  43 SW5       29.70R
HULETT         FAIR      34  23  64 W3        29.71R
NEWCASTLE      FAIR      30  21  69 CALM      29.74R

$$
WYZ014>020-022>026-101>103-160500-
CENTRAL WYOMING

CITY           SKY/WX    TMP DP  RH WIND       PRES   REMARKS
BIG PINEY      FAIR      18   9  68 NW7       29.96F WCI   9
PINEDALE       FAIR      21  12  68 CALM      29.95F
DUBOIS         FAIR      32   5  32 N22G32    29.83F WCI  19
LANDER         FAIR      26  19  74 SE7       29.78F WCI  18
RIVERTON       FAIR      25  18  74 W8        29.81F WCI  16
CASPER         FAIR      41  15  35 SW23G33   29.81S
DOUGLAS        FAIR      45  14  28 CALM      29.75F

$$
WYZ021-027>030-104>119-160500-
SOUTHERN WYOMING

CITY           SKY/WX    TMP DP  RH WIND       PRES   REMARKS
EVANSTON       FAIR      33   8  35 S7        29.97F WCI  27
FORT BRIDGER   FAIR      37   3  23 W8        30.00F WCI  31
ROCK SPRINGS   FAIR      31  10  41 SW9       29.97F WCI  23
DIXON          FAIR      22  11  61 CALM      30.04S
RAWLINS        NOT AVBL
SARATOGA       FAIR      32  12  43 NE5       29.96S WCI  27
LARAMIE        FAIR      37   9  31 SW33G39   29.88F WCI  24
CHEYENNE       FAIR      45   1  16 W20       29.82F
TORRINGTON     FAIR      48   6  18 W14       29.74F
PINE BLUFFS    FAIR      37   5  25 MISG      29.81F

$$




USA.gov is the U.S. government's official web portal to all federal, state and local government web resources and services.